OBJECT K, 59809

Orbit data source: Space-Track

You're viewing an Uncataloged Satellite

Recently launched and/or uncataloged satellites may have evolving metadata. Metadata may include but not limited to: Owner, Maufacturer, Bus, Motor, and Mission.

OBJECT K, 59809 is a satellite owned by Sitronics (CIS) in SSO that was launched on Thu, 16 May 2024 UTC via a SOYUZ-2-1B launch vehicle from the Plesetsk Missile And Space Complex (PKMTR). Unknown objects in Earth's orbit typically refer to objects detected orbiting the Earth but have not yet been identified or cataloged. These objects could be anything from previously untracked satellites, spent rocket stages, debris from satellite collisions, or even natural meteoroids temporarily captured by Earth's gravity.

Loading next visibility...
OBJECT K details
Identifier
59809, 2024-092K
Orbit
SSO
Last TLE update21 hours ago
Origin
Flag of CISSitronics (CIS)
ManufacturerSputniks
MissionOperational spacecraft
Bus & MotorCUBESAT 3U?, Unknown motor
Mass3 kg wet, 3 kg dry
Launch date (UTC)
2024-05-16 (7 months ago)
Launch vehicle
SOYUZ-2-1B
Launch site
Plesetsk Missile And Space Complex (PKMTR)
Object typeUnknown
Shape & HBRUnknown
Radar Cross SectionSmall (<0.1 m²)

Expand to show TLE details & history

TLE from 21 hours ago
0 OBJECT K
1 59809U 24092K   24355.77495740  .00016487  00000-0  87458-3 0  9991
2 59809  97.6099 106.5908 0010990 252.5737 107.4294 15.15383166 32373
Epoch: 2024-12-20T18:35Z
Definitive object data (Epoch: 2024-12-20T18:35:56.319Z)
Latitude0.00001°
Longitude97.7705°
Altitude525.172 km
Speed7.599 km/s
True Right ascension07h 06m 21s
True Declination0° 00' 00"
Sunlit
Object was in full shadow at TLE epoch
Visualization TLE readout
Latitude-19.60711°
Longitude101.33939°
Altitude527.441 km
Speed7.598 km/s
Apparent Right ascension05h 10m 52s
Apparent Declination-35° 31' 30"
Sunlit
Object is in full shadow
Visualization observer readout
Local Sidereal Time14:09:04
Azimuth262.215° W
Elevation-54.172°
Doppler factor1
Orbital elements
Apogee altitude524.374 km
Perigee altitude509.219 km
Semi-major axis6,894.933 km
Eccentricity0.001099
Inclination97.6099°
RAAN106.5908°
Arg. of periapsis252.5737°
True anomaly107.5495°
Mean anomaly107.4294°
Eccentric anomaly107.48946°
Mean motion3.79095 °/min
BSTAR0.00087458
Orbital period94.96 mins
Loading maneuver chart data...
Loading historical data...
Loading historical data...
Loading historical data...
Loading historical data...
Loading historical data...
Loading historical data...
Loading historical data...

OBJECT K Visibility forecast

Observer location: undefined°, undefined

Span
Click to sort rows by Start time (UTC) header in descending order
Start Az.
Max El. time (UTC)
Max El. Az.
Max El.
End time (UTC)
End Az.
7 mins2024-12-21 20:30:50.504Z11.495° NNE2024-12-21 20:33:50.504Z4.742° NNE43.628°2024-12-21 20:37:50.504Z194.243° SSW
5 mins2024-12-22 07:11:50.504Z128.607° SE2024-12-22 07:13:50.504Z74.377° E31.698°2024-12-22 07:16:50.504Z7.843° NNE
|